Flag for Canada Weather past 2 weeks in Kawartha Lakes, Ontario, Canada

Now
62 °F

Mild.


Feels Like: 62 °F
Forecast: 47 / 74 °F
Wind: 7 mph from Northwest

Location: Lagoon City

Current Time: Aug 27, 2015 at 9:19:27 PM

Latest Report: Aug 27, 2015 at 8:00 PM


Visibility: N/A

Pressure: 30.14 "Hg

Humidity: 72%

Dew point: 53 °F

Location of Kawartha LakesLocation

Historic Weather in Kawartha Lakes — Graph

°F

Kawartha Lakes temperature yesterday

Maximum temperature yesterday: 64 °F (at 4:00 PM)
Minimum temperature yesterday: 58 °F (at 7:00 AM)
Average temperature yesterday: 60 °F

Past Weeks' High & Low Weather Summary

 TemperatureHumidityPressure
High82 °F (Aug 17, 6:00 PM)97% (Aug 15, 7:00 AM)30.20 "Hg (Aug 15, 7:00 AM)
Low53 °F (Aug 22, 6:00 AM)50% (Aug 23, 3:00 PM)29.68 "Hg (Aug 20, 7:00 AM)
Average68 °F78%29.96 "Hg
* Reported Aug 12 8:00 PM — Aug 27 8:00 PM, Kawartha Lakes, Weather by CustomWeather, © 2015

Note: Actual official high and low records may vary slightly from our data, if they occured in-between our weather recording intervals... More about our weather records

Advertising

Kawartha Lakes weather history for previous 24 hours

 ConditionsComfort  
Time TempWeatherWind HumidityBarometerVisibility
8:00 PM
Thu, Aug 27
62 °FMild.7 mph72%30.14 "HgN/A
7:00 PM63 °FMild.8 mph66%30.14 "HgN/A
6:00 PM64 °FMild.6 mph66%30.12 "HgN/A
5:00 PM64 °FMild.9 mph64%30.12 "HgN/A
4:00 PM63 °FMild.7 mph69%30.12 "HgN/A
3:00 PM63 °FMild.9 mph64%30.13 "HgN/A
2:00 PM63 °FMild.6 mph67%30.14 "HgN/A
1:00 PM62 °FCool.6 mph70%30.14 "HgN/A
12:00 PM60 °FCool.7 mph78%30.14 "HgN/A
11:00 AM59 °FCool.9 mph78%30.13 "HgN/A
10:00 AM58 °FCool.8 mph81%30.11 "HgN/A
9:00 AM57 °FCool.6 mph86%30.11 "HgN/A
8:00 AM56 °FCool.6 mph91%30.11 "HgN/A
7:00 AM56 °FCool.7 mph92%30.08 "HgN/A
6:00 AM57 °FCool.9 mph91%30.06 "HgN/A
5:00 AM57 °FCool.6 mph90%30.05 "HgN/A
4:00 AM56 °FCool.5 mph91%30.05 "HgN/A
3:00 AM56 °FCool.5 mph93%30.04 "HgN/A
2:00 AM56 °FCool.6 mph88%30.04 "HgN/A
1:00 AM58 °FCool.8 mph92%30.03 "HgN/A
12:00 AM59 °FCool.8 mph88%30.02 "HgN/A
11:00 PM
Wed, Aug 26
58 °FCool.12 mph89%30.03 "HgN/A
10:00 PM60 °FCool.15 mph85%30.02 "HgN/A
9:00 PM60 °FCool.15 mph89%30.01 "HgN/A
Weather by CustomWeather, © 2015

See weather overviewHow to use our weather pages